[TLELIST] Archives

 

[list_settings.list_name] Current TLEs

September 10th 2013 PDT

HST 1 20580U 90037B 13250.96875564 .00001353 00000-0 83663-4 0 3272 2 20580 028.4700 090.0378 0002996 149.5055 357.4174 15.03902759 82170 ISS (ZARYA) 1 25544U 98067A 13253.39849788 .00005592 00000-0 10416-3 0 5633 2 25544 051.6506 046.0777 0003909 050.3639 349.2143 15.50477711847927 CXO 1 25867U 99040B 13255.19939560 .00000379 00000-0 00000+0 0 9491 2 25867 075.9207 334.5578 8476968 276.7779 000.4542 00.37800427 10869 ____________________________________________________________________ These 2-Line ...Continue Reading

[list_settings.list_name] Current TLEs

September 9th 2013 PDT

HST 1 20580U 90037B 13250.96875564 .00001353 00000-0 83663-4 0 3272 2 20580 028.4700 090.0378 0002996 149.5055 357.4174 15.03902759 82170 ISS (ZARYA) 1 25544U 98067A 13252.42909670 .00005866 00000-0 10892-3 0 5578 2 25544 051.6507 050.8787 0003804 046.4401 338.6661 15.50467016847776 CXO 1 25867U 99040B 13252.55557586 .00000328 00000-0 00000+0 0 9485 2 25867 075.9092 334.7086 8478927 276.7732 000.6908 00.37805213 10858 ____________________________________________________________________ These 2-Line ...Continue Reading

[list_settings.list_name] Current TLEs

September 8th 2013 PDT

HST 1 20580U 90037B 13250.96875564 .00001353 00000-0 83663-4 0 3272 2 20580 028.4700 090.0378 0002996 149.5055 357.4174 15.03902759 82170 ISS (ZARYA) 1 25544U 98067A 13251.34143140 .00001260 00000-0 29633-4 0 5501 2 25544 051.6499 056.2734 0004046 047.1041 023.0224 15.50455849847608 CXO 1 25867U 99040B 13252.55557586 .00000328 00000-0 00000+0 0 9485 2 25867 075.9092 334.7086 8478927 276.7732 000.6908 00.37805213 10858 ____________________________________________________________________ These 2-Line ...Continue Reading

[list_settings.list_name] Current TLEs

September 7th 2013 PDT

HST 1 20580U 90037B 13249.96668697 .00001413 00000-0 87949-4 0 3264 2 20580 028.4699 096.6093 0003050 139.3901 331.5863 15.03900628 82027 ISS (ZARYA) 1 25544U 98067A 13250.37532554 .00011485 00000-0 20565-3 0 5430 2 25544 051.6466 061.0622 0003599 039.4348 034.7134 15.50449552847454 CXO 1 25867U 99040B 13252.55557586 .00000328 00000-0 00000+0 0 9485 2 25867 075.9092 334.7086 8478927 276.7732 000.6908 00.37805213 10858 ____________________________________________________________________ These 2-Line ...Continue Reading

[list_settings.list_name] Current TLEs

September 6th 2013 PDT

HST 1 20580U 90037B 13248.83870258 .00001424 00000-0 88683-4 0 3254 2 20580 028.4698 104.0069 0003119 127.2079 344.7728 15.03898250 81854 ISS (ZARYA) 1 25544U 98067A 13249.53119278 .00007968 00000-0 14534-3 0 5373 2 25544 051.6503 065.2481 0003523 041.4212 358.0166 15.50414019847328 CXO 1 25867U 99040B 13249.91200265 .00000393 00000-0 00000+0 0 9471 2 25867 075.8930 334.8894 8478961 276.7739 000.9055 00.37802254 10848 ____________________________________________________________________ These 2-Line ...Continue Reading

[list_settings.list_name] Current TLEs

September 5th 2013 PDT

HST 1 20580U 90037B 13247.05437332 .00001536 00000-0 96688-4 0 3246 2 20580 028.4696 115.7083 0003192 108.8062 043.7197 15.03894044 81588 ISS (ZARYA) 1 25544U 98067A 13248.44352429 -.00004856 00000-0 -76030-4 0 5330 2 25544 051.6509 070.6428 0003713 034.4043 050.2478 15.50393394847150 CXO 1 25867U 99040B 13249.91200265 .00000393 00000-0 00000+0 0 9471 2 25867 075.8930 334.8894 8478961 276.7739 000.9055 00.37802254 10848 ____________________________________________________________________ These 2-Line ...Continue Reading

[list_settings.list_name] Current TLEs

September 4th 2013 PDT

HST 1 20580U 90037B 13247.05437332 .00001536 00000-0 96688-4 0 3246 2 20580 028.4696 115.7083 0003192 108.8062 043.7197 15.03894044 81588 ISS (ZARYA) 1 25544U 98067A 13247.34321542 .00005531 00000-0 10349-3 0 5249 2 25544 051.6508 076.0937 0003518 035.2598 024.0771 15.50370965846985 CXO 1 25867U 99040B 13249.91097506 .00000393 00000-0 00000+0 0 9462 2 25867 075.8931 334.8905 8478937 276.7734 000.7658 00.37804025 10845 ____________________________________________________________________ These 2-Line ...Continue Reading

[list_settings.list_name] Current TLEs

September 3rd 2013 PDT

HST 1 20580U 90037B 13245.84935824 .00001554 00000-0 97923-4 0 3232 2 20580 028.4696 123.6108 0003267 096.7130 358.9793 15.03891202 81393 ISS (ZARYA) 1 25544U 98067A 13246.37684192 .00007627 00000-0 13970-3 0 5177 2 25544 051.6504 080.8845 0003423 031.1579 030.9902 15.50364097846836 CXO 1 25867U 99040B 13247.26904344 .00000442 00000-0 00000+0 0 9448 2 25867 075.8787 335.0442 8478236 276.8038 001.1115 00.37798460 10830 ____________________________________________________________________ These 2-Line ...Continue Reading

[list_settings.list_name] Current TLEs

September 2nd 2013 PDT

HST 1 20580U 90037B 13244.15303241 .00001580 00000-0 99798-4 0 3227 2 20580 028.4696 134.7355 0003268 078.8360 174.8327 15.03887202 81143 ISS (ZARYA) 1 25544U 98067A 13245.47787697 .00014299 00000-0 25481-3 0 5107 2 25544 051.6503 085.3402 0003466 027.9783 053.4902 15.50359775846692 CXO 1 25867U 99040B 13247.26588729 .00000442 00000-0 00000+0 0 9454 2 25867 075.8789 335.0437 8478269 276.8036 000.6814 00.37797052 10836 ____________________________________________________________________ These 2-Line ...Continue Reading

[list_settings.list_name] Current TLEs

September 1st 2013 PDT

HST 1 20580U 90037B 13244.15303241 .00001580 00000-0 99798-4 0 3227 2 20580 028.4696 134.7355 0003268 078.8360 174.8327 15.03887202 81143 ISS (ZARYA) 1 25544U 98067A 13244.44415372 -.00031347 00000-0 -53700-3 0 5033 2 25544 051.6524 090.4637 0004030 017.2314 050.9642 15.50329336846538 CXO 1 25867U 99040B 13244.62236040 .00000377 00000-0 00000+0 0 9432 2 25867 075.8618 335.1703 8480420 276.8526 000.7631 00.37797952 10826 ____________________________________________________________________ These 2-Line ...Continue Reading
  • This mailing list is a public mailing list - anyone may join or leave, at any time.
  • This mailing list is announce-only.

International Space Station (ISS) / Hubble Space Telescope (HST) / Chandra X-Ray Observatory Orbital Data via EMAIL

Privacy Policy:

Private list